Regional Weather Roundup
Issued by NWS

Home | Current Version | Previous Version | Graphics & Text | Print | Product List | Glossary On
Versions: 1 2 3 4 5 6 7 8 9 10 11 12 13 14 15 16 17 18 19 20 21 22 23 24 25 26 27 28 29 30 31 32 33 34 35 36 37 38 39 40 41 42 43 44 45 46 47 48 49 50
000
ASUS43 KOAX 281002
RWRNE

WEATHER ROUNDUP FOR NEBRASKA
NATIONAL WEATHER SERVICE OMAHA NE
500 AM CDT TUE JUL 28 2015

NOTES: SATELLITE DATA IS BEING USED TO AUGMENT CLOUD COVER ABOVE
       12000 FEET.
       "FAIR" INDICATES FEW OR NO CLOUDS BELOW 12,000 FEET WITH NO
       SIGNIFICANT WEATHER AND/OR OBSTRUCTIONS TO VISIBILITY.

  * THESE STATIONS DO NOT REPORT WEATHER SUCH AS RAIN...SNOW OR FOG.

NEZ001>004-019>022-054>056-281100-
NEBRASKA PANHANDLE

CITY           SKY/WX    TMP DP  RH WIND       PRES   REMARKS
SCOTTSBLUFF    CLEAR     56  48  74 W8        30.01R
ALLIANCE       CLEAR     59  47  64 NW14      29.96R
CHADRON        CLEAR     57  47  69 W22G30    29.96R
KIMBALL        CLEAR     56  47  69 N9        30.04R
SIDNEY         CLEAR     60  49  66 N21G29    29.99R
$$

NEZ057>060-069>072-079>082-281100-
SOUTHWEST NEBRASKA

CITY           SKY/WX    TMP DP  RH WIND       PRES   REMARKS
NORTH PLATTE   CLEAR     72  67  84 CALM      29.79R
IMPERIAL       CLEAR     72  49  44 NW16      29.85R
MCCOOK         PTCLDY    79  66  64 W12       29.77R
$$

NEZ005>010-023>029-035>040-094-281100-
NORTH CENTRAL NEBRASKA

CITY           SKY/WX    TMP DP  RH WIND       PRES   REMARKS
VALENTINE      PTCLDY    64  56  75 NW17G26   29.84R
AINSWORTH      MOCLDY    70  64  80 NW12      29.84R
BROKEN BOW     PTCLDY    75  69  81 CALM      29.76S
O`NEILL        CLOUDY    69  69  98 S5        29.75S
ORD            MOCLDY    75  68  78 CALM      29.74F
$$

NEZ041-046>049-061>064-073>077-083>087-281100-
SOUTH CENTRAL NEBRASKA

CITY           SKY/WX    TMP DP  RH WIND       PRES   REMARKS
GRAND ISLAND   PTCLDY    78  69  73 S16       29.73F
AURORA         LGT RAIN  77  70  79 S13       29.74S
HASTINGS       CLEAR     77  69  76 S12       29.75F
KEARNEY *      PTCLDY    79  70  73 S16G25    29.73S
$$

NEZ011>018-030>034-042>045-281100-
NORTHEAST NEBRASKA

CITY           SKY/WX    TMP DP  RH WIND       PRES   REMARKS
NORFOLK        CLOUDY    77  72  84 NW5       29.77R
ALBION         MOCLDY    76  67  73 CALM      29.76F
BLAIR          PTCLDY    77  70  79 S16G29    29.76F
COLUMBUS *     PTCLDY    81  68  65 S14       29.73S
FREMONT        CLOUDY    78  72  81 SE7       29.76F
TEKAMAH        TSTM      77  73  87 SE20G29   29.74F FOG
$$

NEZ050>053-065>068-078-088>093-281100-
SOUTHEAST NEBRASKA

CITY           SKY/WX    TMP DP  RH WIND       PRES   REMARKS
LINCOLN        PTCLDY    81  71  71 S15       29.77S
OMAHA EPPLEY   PTCLDY    77  72  84 S15       29.76F
BEATRICE       PTCLDY    79  71  77 S12G17    29.78F
FALLS CITY     CLEAR     76  73  91 S9        29.82S
NEBRASKA CITY  CLEAR     75  74  97 S10       29.81S
$$

NEZ044-045-051>053-067-281100-
OMAHA AREA

CITY           SKY/WX    TMP DP  RH WIND       PRES   REMARKS
OMAHA EPPLEY   PTCLDY    77  72  84 S15       29.76F
BLAIR          PTCLDY    77  70  79 S16G29    29.76F
FREMONT        CLOUDY    78  72  81 SE7       29.76F
OFFUTT AFB     CLEAR     74  72  92 SE10      29.77F
WAHOO          FAIR      76  73  90 S16       29.74F
$$


USA.gov is the U.S. government's official web portal to all federal, state and local government web resources and services.